Boothville, LA

12:10 AM CST on January 22, 2017 (GMT -0600)
Boothville

Weather History for KBVE - December, 2012

Change the Weather History Date:

Tuesday, December 25, 2012

  Actual Average (KAXO) Record (KAXO)
Temperature  
Mean Temperature 66 °F -  
Max Temperature 73 °F 54 °F 75 °F (2008)
Min Temperature 59 °F 50 °F 35 °F (2004)
Cooling Degree Days 1    
Growing Degree Days 16 (Base 50)    
Moisture  
Dew Point 63 °F    
Average Humidity 87    
Maximum Humidity 100    
Minimum Humidity 72    
Precipitation  
Precipitation 0.16 in - - ()
Sea Level Pressure  
Sea Level Pressure 29.74 in    
Wind  
Wind Speed 13 mph (SSW)    
Max Wind Speed 32 mph    
Max Gust Speed 41 mph    
Visibility 8 miles    
Events Rain    
Averages and records for this station are not official NWS values.
T = Trace of Precipitation, MM = Missing Value Source: NWS Daily Summary

Daily Weather History Graph

Daily Weather History Graph

Search for Another Location

Airport or City:

Trip Planner

Search our weather history database for the weather conditions in past years. The results will help you decide how hot, cold, wet, or windy it might be!

Date:

Astronomy

Dec. 25, 2012 Rise Set
Actual Time 6:49 AM CST 5:06 PM CST
Civil Twilight 6:23 AM CST 5:32 PM CST
Nautical Twilight 5:53 AM CST 6:02 PM CST
Astronomical Twilight 5:24 AM CST 6:31 PM CST
Moon 3:11 PM CST (12/25) 4:25 AM CST (12/25)
Length of Visible Light 11h 08m
Length of Day
10h 16m
Waxing Gibbous, 94% of the Moon is Illuminated
Dec 25
Waxing Gibbous
Dec 28
Full
Jan 4
Last Quarter
Jan 11
New
Jan 18
First Quarter

Hourly Weather History & Observations

Time (CST) Temp. Dew Point Humidity Pressure Visibility Wind Dir Wind Speed Gust Speed Precip Events Conditions
12:11 AM 64.4 °F 64.4 °F 100% 29.90 in 4.0 mi SSE 5.8 mph - N/A   Mostly Cloudy
12:27 AM 64.4 °F 64.4 °F 100% 29.89 in 5.0 mi South 5.8 mph - N/A   Mostly Cloudy
12:51 AM 64.0 °F 64.0 °F 100% 29.88 in 5.0 mi South 5.8 mph - N/A   Partly Cloudy
1:51 AM 64.9 °F 64.9 °F 100% 29.86 in 5.0 mi SSE 5.8 mph - N/A   Partly Cloudy
2:51 AM 64.9 °F 64.9 °F 100% 29.85 in 8.0 mi SSE 8.1 mph - N/A   Mostly Cloudy
3:51 AM 64.9 °F 64.0 °F 97% 29.83 in 7.0 mi SSE 8.1 mph - N/A   Clear
4:51 AM 64.0 °F 64.0 °F 100% 29.82 in 8.0 mi SSE 6.9 mph - N/A   Clear
5:51 AM 64.9 °F 64.0 °F 97% 29.82 in 10.0 mi South 10.4 mph - N/A   Clear
6:51 AM 64.9 °F 64.0 °F 97% 29.81 in 10.0 mi SSE 9.2 mph - N/A   Clear
7:51 AM 66.0 °F 64.0 °F 93% 29.82 in 10.0 mi South 10.4 mph - N/A   Clear
8:51 AM 66.9 °F 64.0 °F 90% 29.82 in 10.0 mi South 12.7 mph - N/A   Clear
9:51 AM 70.0 °F 64.0 °F 81% 29.83 in 10.0 mi South 13.8 mph - N/A   Clear
10:51 AM 72.0 °F 64.0 °F 76% 29.78 in 10.0 mi South 18.4 mph 25.3 mph N/A   Clear
11:51 AM 71.1 °F 64.0 °F 78% 29.68 in 10.0 mi SSE 24.2 mph 31.1 mph N/A   Clear
12:51 PM 73.9 °F 66.9 °F 79% 29.67 in 10.0 mi South 20.7 mph 29.9 mph N/A   Partly Cloudy
1:07 PM 73.4 °F 66.2 °F 78% 29.66 in 9.0 mi South 19.6 mph 27.6 mph N/A   Mostly Cloudy
1:51 PM 73.0 °F 66.9 °F 81% 29.64 in 8.0 mi South 24.2 mph 34.5 mph N/A   Overcast
2:51 PM 73.0 °F 66.9 °F 81% 29.68 in 8.0 mi SSW 17.3 mph 25.3 mph N/A   Overcast
3:08 PM 73.4 °F 66.2 °F 78% 29.67 in 8.0 mi SSW 20.7 mph 28.8 mph N/A   Mostly Cloudy
3:51 PM 72.0 °F 66.9 °F 84% 29.64 in 7.0 mi South 20.7 mph 31.1 mph N/A   Scattered Clouds
4:51 PM 71.1 °F 66.0 °F 84% 29.63 in 7.0 mi South 24.2 mph 32.2 mph N/A   Overcast
5:51 PM 71.1 °F 66.0 °F 84% 29.62 in 9.0 mi South 20.7 mph 31.1 mph 0.00 in   Overcast
6:23 PM 71.6 °F 66.2 °F 83% 29.62 in 8.0 mi South 27.6 mph 38.0 mph N/A   Overcast
6:51 PM 70.0 °F 66.9 °F 90% 29.62 in 7.0 mi South 21.9 mph 29.9 mph N/A   Mostly Cloudy
7:05 PM 71.6 °F 66.2 °F 83% 29.62 in 7.0 mi SSW 24.2 mph 39.1 mph 0.00 in Rain Light Rain
7:51 PM 68.0 °F 64.0 °F 87% 29.69 in 4.0 mi West 32.2 mph 41.4 mph 0.00 in Rain Light Rain
7:53 PM 62.6 °F 60.8 °F 94% 29.68 in 1.0 mi West 25.3 mph 41.4 mph 0.00 in Rain Light Rain
8:00 PM 59.0 °F 57.2 °F 94% 29.68 in 0.8 mi West 16.1 mph 36.8 mph 0.16 in Rain Light Rain
8:03 PM 59.0 °F 57.2 °F 94% 29.68 in 2.0 mi West 13.8 mph - 0.16 in Rain Light Rain
8:10 PM 60.8 °F 57.2 °F 88% 29.69 in 7.0 mi West 15.0 mph - 0.16 in   Mostly Cloudy
8:51 PM 64.0 °F 57.9 °F 80% 29.69 in 9.0 mi WSW 13.8 mph - 0.16 in   Scattered Clouds
9:51 PM 63.0 °F 55.0 °F 75% 29.71 in 10.0 mi West 15.0 mph - N/A   Mostly Cloudy
10:51 PM 61.0 °F 52.0 °F 72% 29.75 in 10.0 mi West 13.8 mph - N/A   Partly Cloudy
11:51 PM 60.1 °F 51.1 °F 72% 29.77 in 10.0 mi WNW 13.8 mph 21.9 mph N/A   Clear